Regional Weather Roundup
Issued by NWS

Home | Current Version | Previous Version | Text Only | Print | Product List | Glossary Off
Versions: 1 2 3 4 5 6 7 8 9 10 11 12 13 14 15 16 17 18 19 20 21 22 23 24 25 26 27 28 29 30 31 32 33 34 35 36 37 38 39 40 41 42 43 44 45 46 47 48 49 50

209
ASUS44 KJAN 300903
RWRMS

MISSISSIPPI HOURLY WEATHER ROUNDUP
NATIONAL WEATHER SERVICE JACKSON MS
400 AM CDT WED JUL 30 2014

NOTE: "FAIR: INDICATES FEW OR NO CLOUDS BELOW 12,000 FEET WITH NO
SIGNIFICANT WEATHER AND/OR OBSTRUCTIONS TO VISIBILITY.

MSZ001>002-007>008-010>013-018>021-025>028-034>036-301000-
NORTHWEST MISSISSIPPI

CITY           SKY/WX    TMP DP  RH WIND       PRES   REMARKS
CLARKSDALE     FAIR      61  61 100 CALM      30.10S
CLEVELAND      FAIR      63  62  94 CALM      30.08S
GREENWOOD      MOCLDY    60  58  92 CALM      30.08F
GREENVILLE     PTCLDY    62  60  93 CALM      30.08S
GRENADA        FAIR      57  55  94 CALM      30.09S
OLIVE BRANCH   CLEAR     61  61 100 CALM      30.10S
OXFORD         FAIR      55  54  94 CALM      30.11S
TUNICA         MOSUNNY   61  59  94 CALM      30.10S
$$

MSZ003>006-009-014>017-022>024-029>033-037>039-301000-
NORTHEAST MISSISSIPPI

CITY           SKY/WX    TMP DP  RH WIND       PRES   REMARKS
BELMONT        FAIR      56  55  97 CALM      30.09S
COLUMBUS AFB   CLEAR     58  58  97 CALM      30.08S
CORINTH        FOG       55  55 100 CALM      30.09S VSB 1/2
GOLDN TRIANGLE CLEAR     57  54  88 CALM      30.08S
STARKVILLE     FAIR      55  55 100 CALM      30.08S
TUPELO         CLEAR     60  55  83 CALM      30.09R
$$

MSZ040-058-301000-
CENTRAL MISSISSIPPI

CITY           SKY/WX    TMP DP  RH WIND       PRES   REMARKS
JACKSON INTL   CLEAR     61  58  90 CALM      30.08S
JACKSON HAWKNS CLEAR     65  59  81 CALM      30.09R
MERIDIAN KEY   CLEAR     59  56  89 CALM      30.07S
MERIDIAN NAS   CLEAR     58  56  93 CALM      30.07S
RAYMOND        FAIR      61  55  82 CALM      30.09S
VICKSBURG      CLEAR     60  58  92 CALM      30.08F
$$

MSZ059>079-301000-
SOUTH MISSISSIPPI

CITY           SKY/WX    TMP DP  RH WIND       PRES   REMARKS
BROOKHAVEN     FAIR      63  61  94 CALM      30.09S
COLUMBIA       FAIR      61  59  94 CALM      30.06R
HATTIESBURG    CLEAR     64  62  93 CALM      30.07S
MCCOMB         CLEAR     67  60  78 CALM      30.07S
NATCHEZ        CLEAR     64  59  82 CALM      30.08S
PINE BELT      CLEAR     63  57  82 N5        30.08R
$$

MSZ080>082-301000-
COASTAL MISSISSIPPI

CITY           SKY/WX    TMP DP  RH WIND       PRES   REMARKS
BILOXI         CLEAR     72  63  74 NE7       30.03S
PASCAGOULA     CLEAR     68  62  81 N5        30.03S
GULFPORT       CLEAR     74  63  68 N6        30.02S
$$



USA.gov is the U.S. government's official web portal to all federal, state and local government web resources and services.